Location: Puketoi
(40.5833°S, 176.0167°E)
Time: 01:48:39
(UTC+00:00)

Okean 1 Rocket - Pass Details

Date: 08 February 2023
Orbit: 604 x 634 km, 82.5° (Epoch: 31 March)

Event Time Altitude Azimuth Distance (km) Brightness Sun altitude
Rises 15:27:43 0° 183° (S) 2,909 7.1 -20.9°
Reaches altitude 10° 15:30:01 10° 177° (S) 1,999 6.3 -20.6°
Maximum altitude 15:34:20 49° 101° (E) 804 3.9 -20.0°
Drops below altitude 10° 15:38:36 10° 25° (NNE) 1,988 5.5 -19.4°
Enters shadow 15:39:26 - 22° (NNE) 2,312 5.8 -19.2°
